Flag for Brazil Weather past 2 weeks in Belém, Para, Brazil

Now
82 °F

Partly sunny.


Feels Like: 86 °F
Forecast: 74 / 90 °F
Wind: 17 mph from East

Location: Belem Aeroporto

Current Time: Jul 25, 2014 at 10:47:32 AM

Latest Report: Jul 25, 2014 at 10:00 AM


Visibility: N/A

Pressure: 29.95 "Hg

Humidity: 66%

Dew point: 70 °F

Location of BelémLocation

Historic Weather in Belém — Graph

°F

Belém temperature yesterday

Maximum temperature yesterday: 90 °F (at 2:00 PM)
Minimum temperature yesterday: 75 °F (at 1:00 AM)
Average temperature yesterday: 79 °F

Past Weeks' High & Low Weather Summary

 TemperatureHumidityPressure
High90 °F (Jul 12, 4:00 PM)100% (Jul 12, 6:00 PM)30.04 "Hg (Jul 12, 6:00 PM)
Low39 °F (Jul 12, 7:00 PM)49% (Jul 23, 4:00 PM)29.83 "Hg (Jul 10, 4:00 PM)
Average79 °F81%29.95 "Hg
* Reported Jul 10 9:00 AM — Jul 25 9:00 AM, Belém, Weather by CustomWeather, © 2014

Note: Actual official high and low records may vary slightly from our data, if they occured in-between our weather recording intervals... More about our weather records

Advertising

Belém weather history for previous 24 hours

 ConditionsComfort  
Time TempWeatherWind HumidityBarometerVisibility
9:00 AM
Jul 25
81 °FPassing clouds.14 mph74%29.95 "HgN/A
8:00 AM77 °FSunny.10 mph83%29.92 "Hg10 mi
7:00 AM73 °FSunny.2 mph94%29.89 "Hg10 mi
6:00 AM73 °FClear.1 mph94%29.89 "Hg10 mi
5:00 AM73 °FClear.2 mph94%29.89 "Hg10 mi
4:00 AM75 °FClear.3 mph89%29.89 "Hg10 mi
3:00 AM75 °FClear.3 mph83%29.89 "Hg10 mi
2:00 AM75 °FClear.5 mph83%29.89 "Hg10 mi
1:00 AM75 °FClear.5 mph94%29.92 "Hg10 mi
12:00 AM77 °FClear.5 mph89%29.92 "Hg10 mi
11:00 PM
Jul 24
77 °FClear.5 mph94%29.92 "Hg10 mi
10:00 PM75 °FPassing clouds.No wind100%29.92 "HgN/A
9:00 PM77 °FPassing clouds.3 mph94%29.92 "HgN/A
8:00 PM77 °FClear.No wind94%29.89 "Hg10 mi
7:00 PM77 °FPassing clouds.3 mph79%29.86 "HgN/A
6:00 PM81 °FBroken clouds.6 mph74%29.86 "HgN/A
5:00 PM81 °FPartly sunny.2 mph94%29.83 "HgN/A
4:00 PM79 °FLight rain. Partly sunny.6 mph94%N/AN/A
3:00 PM86 °FPartly sunny.5 mph62%29.83 "HgN/A
2:00 PM90 °FPartly sunny.7 mph49%29.86 "HgN/A
1:00 PM86 °FPartly sunny.8 mph59%29.89 "HgN/A
12:00 PM86 °FPartly sunny.6 mph59%29.95 "HgN/A
11:00 AM84 °FPartly sunny.12 mph62%29.95 "HgN/A
10:00 AM84 °FScattered clouds.9 mph62%29.95 "HgN/A
Weather by CustomWeather, © 2014

See weather overviewHow to use our weather pages